SL-3 DEB, 15769

Orbit data source: Space-Track

SL-3 DEB, 15769 is space debris in LEO originally from a launch on Thu, 14 May 1981 UTC launched from the Plesetsk Missile And Space Complex (PKMTR). Debris objects in space refer to the collection of defunct objects orbiting the Earth. Examples of debris include non-operational satellites, rocket bodies, and fragments generated from explosions, collisions, or faulty payload assembly.

Loading next visibility...
Identifier
15769, 1981-043C
Orbit
LEO
Country
Flag of CISCIS
Related business
Manufacturer
Unknown
Mission
Spacecraft
Bus & Motor
Unknown
Mass
Unknown
Launch date (UTC)
1981-05-14 (44 years ago)
Launch vehicle
Unknown
Launch site
Plesetsk Missile And Space Complex (PKMTR)
Object type
Payload
Rocket body
Debris
Shape & HBR
Unknown
Radar Cross Section
Small (<0.1 m²)

Expand to show TLE details & history
Last TLE update: 18 hours ago

TLE from 18 hours ago
0 SL-3 DEB
1 15769U 81043C   25259.59726839  .00000041  00000-0  17012-4 0  9996
2 15769  81.2737  95.1238 0059746 339.0989  20.7738 14.07214369116101
Epoch: 2025-09-16T14:20Z
TLE epoch observation values (Epoch: 2025-09-16T14:20:03.988Z)
Latitude
-0.00004°
Longitude
-115.67811°
Altitude
831.358 km
Speed
7.458 km/s
True Right ascension
06h 20m 29s
True Declination
0° 00' 00"
Sunlit
Object was in daylight at epoch
Visualization orbit readout
Latitude
Unknown
Longitude
Unknown
Altitude
Unknown
Speed
Unknown
Apparent Right ascension
Unknown
Apparent Declination
Unknown
Sunlit
N/A
Visualization observer readout
Local Sidereal Time
00:40:44
Azimuth
Unknown
Elevation
Unknown
Doppler factor
Unknown
Orbital elements
Apogee altitude
909.378 km
Perigee altitude
822.815 km
Semi-major axis
7,244.233 km
Eccentricity
0.00597
Inclination
81.2737°
RAAN
95.1238°
Arg. of periapsis
339.0989°
True anomaly
21.01833°
Mean anomaly
20.7738°
Eccentric anomaly
20.8959°
Mean motion
3.5201 °/min
Orbital period
102.27 mins
BSTAR
0.000017012
Loading maneuver chart data...
Computing Atmospheric mass density...
Loading historical data...
Loading historical data...
Loading historical data...
Loading historical data...
Loading historical data...
Loading historical data...
Loading historical data...

Documentation

Showing up to 5 results
|